When you browse on this site, cookies collect data to enhance your experience and personalize the content and advertising you see.
Visit our Privacy Policy to learn more. By continuing to use the site, you agree to this use of cookies and data.
  • In Spain
  • List of Countries
  • For 7 days
  • Water Temperature
  • Satellite Maps
  • Weather Map
  • Weather Widgets
  • user-avatar
    Login

    Hourly Weather Ganja

    Today, 23 May, Thursday

    Time Temperature Precipitation Wind Pressure Humidity
    00:00 +18°C° 0 mm 2 mps 725 mmHg 66%
    01:00 +18°C° 0 mm 2 mps 725 mmHg 67%
    02:00 +18°C° 0 mm 2 mps 725 mmHg 68%
    03:00 +17°C° 0 mm 3 mps 725 mmHg 68%
    04:00 +18°C° 0 mm 2 mps 725 mmHg 68%
    05:00 +18°C° 0 mm 2 mps 725 mmHg 68%
    06:00 +18°C° 0 mm 2 mps 725 mmHg 68%
    07:00 +20°C° 0 mm 2 mps 724 mmHg 64%
    08:00 +21°C° 0 mm 2 mps 724 mmHg 60%
    09:00 +24°C° 0 mm 2 mps 724 mmHg 57%
    10:00 +24°C° 0.1 mm 2 mps 724 mmHg 54%
    11:00 +25°C° 0.1 mm 2 mps 723 mmHg 52%
    12:00 +26°C° 0.1 mm 2 mps 723 mmHg 49%
    13:00 +26°C° 0.2 mm 1 mps 723 mmHg 49%
    14:00 +26°C° 0.2 mm 1 mps 723 mmHg 49%
    15:00 +26°C° 0.2 mm 1 mps 722 mmHg 48%
    16:00 +26°C° 0.1 mm 1 mps 722 mmHg 49%
    17:00 +26°C° 0.1 mm 1 mps 722 mmHg 50%
    18:00 +26°C° 0.1 mm 1 mps 722 mmHg 51%
    19:00 +24°C° 0.1 mm 1 mps 723 mmHg 52%
    20:00 +23°C° 0.1 mm 1 mps 723 mmHg 54%
    21:00 +22°C° 0.1 mm 1 mps 724 mmHg 55%
    22:00 +21°C° 0 mm 1 mps 724 mmHg 55%
    23:00 +21°C° 0 mm 1 mps 724 mmHg 55%

    Tomorrow, 24 May, Friday

    Time Temperature Precipitation Wind Pressure Humidity
    00:00 +20°C° 0 mm 1 mps 724 mmHg 54%
    01:00 +20°C° 0 mm 1 mps 724 mmHg 55%
    02:00 +19°C° 0 mm 1 mps 724 mmHg 56%
    03:00 +19°C° 0 mm 1 mps 724 mmHg 57%
    04:00 +19°C° 0 mm 1 mps 724 mmHg 57%
    05:00 +20°C° 0 mm 1 mps 725 mmHg 58%
    06:00 +20°C° 0 mm 1 mps 725 mmHg 58%
    07:00 +22°C° 0 mm 1 mps 725 mmHg 55%
    08:00 +23°C° 0 mm 2 mps 725 mmHg 51%
    09:00 +24°C° 0 mm 2 mps 725 mmHg 48%
    10:00 +25°C° 0 mm 2 mps 724 mmHg 47%
    11:00 +26°C° 0 mm 2 mps 724 mmHg 45%
    12:00 +27°C° 0 mm 2 mps 724 mmHg 44%
    13:00 +27°C° 0.1 mm 2 mps 724 mmHg 43%
    14:00 +28°C° 0.1 mm 2 mps 724 mmHg 43%
    15:00 +28°C° 0.1 mm 3 mps 723 mmHg 42%
    16:00 +27°C° 0.6 mm 2 mps 723 mmHg 47%
    17:00 +26°C° 0.6 mm 2 mps 723 mmHg 52%
    18:00 +25°C° 0.6 mm 2 mps 723 mmHg 57%
    19:00 +25°C° 1.5 mm 2 mps 724 mmHg 61%
    20:00 +24°C° 1.5 mm 2 mps 725 mmHg 66%
    21:00 +22°C° 1.5 mm 3 mps 726 mmHg 71%
    22:00 +21°C° 0 mm 3 mps 726 mmHg 73%
    23:00 +21°C° 0 mm 3 mps 726 mmHg 75%

    Day after tomorrow, 25 May, Saturday

    Time Temperature Precipitation Wind Pressure Humidity
    00:00 +20°C° 0 mm 3 mps 726 mmHg 77%
    01:00 +20°C° 0 mm 3 mps 726 mmHg 79%
    02:00 +19°C° 0 mm 2 mps 726 mmHg 82%
    03:00 +20°C° 0 mm 1 mps 726 mmHg 84%
    04:00 +20°C° 0 mm 1 mps 726 mmHg 83%
    05:00 +20°C° 0 mm 1 mps 726 mmHg 82%
    06:00 +21°C° 0 mm 1 mps 726 mmHg 81%
    07:00 +22°C° 0 mm 1 mps 725 mmHg 74%
    08:00 +23°C° 0 mm 1 mps 725 mmHg 67%
    09:00 +25°C° 0 mm 2 mps 725 mmHg 60%
    10:00 +26°C° 0 mm 2 mps 725 mmHg 55%
    11:00 +28°C° 0 mm 2 mps 724 mmHg 50%
    12:00 +29°C° 0 mm 2 mps 724 mmHg 46%
    13:00 +30°C° 0 mm 2 mps 723 mmHg 44%
    14:00 +30°C° 0 mm 3 mps 723 mmHg 42%
    15:00 +31°C° 0 mm 3 mps 723 mmHg 41%
    16:00 +31°C° 0.1 mm 3 mps 723 mmHg 44%
    17:00 +30°C° 0.1 mm 3 mps 723 mmHg 47%
    18:00 +29°C° 0.1 mm 4 mps 723 mmHg 51%
    19:00 +28°C° 0 mm 3 mps 723 mmHg 55%
    20:00 +27°C° 0 mm 3 mps 723 mmHg 58%
    21:00 +25°C° 0 mm 2 mps 723 mmHg 62%
    22:00 +25°C° 0 mm 2 mps 724 mmHg 61%
    23:00 +25°C° 0 mm 2 mps 724 mmHg 59%

    26 May, Sunday

    Time Temperature Precipitation Wind Pressure Humidity
    00:00 +25°C° 0 mm 1 mps 724 mmHg 57%
    01:00 +24°C° 0 mm 2 mps 724 mmHg 57%
    02:00 +22°C° 0 mm 3 mps 723 mmHg 57%
    03:00 +21°C° 0 mm 3 mps 723 mmHg 57%
    04:00 +21°C° 0 mm 4 mps 723 mmHg 57%
    05:00 +22°C° 0 mm 4 mps 723 mmHg 57%
    06:00 +22°C° 0 mm 4 mps 723 mmHg 57%
    07:00 +23°C° 0.1 mm 4 mps 723 mmHg 53%
    08:00 +26°C° 0.1 mm 4 mps 723 mmHg 50%
    09:00 +27°C° 0.1 mm 4 mps 723 mmHg 47%
    10:00 +28°C° 0.4 mm 4 mps 723 mmHg 45%
    11:00 +29°C° 0.4 mm 3 mps 723 mmHg 43%
    12:00 +30°C° 0.4 mm 3 mps 723 mmHg 41%
    13:00 +29°C° 1.6 mm 2 mps 722 mmHg 43%
    14:00 +29°C° 1.6 mm 2 mps 722 mmHg 45%
    15:00 +29°C° 1.6 mm 2 mps 722 mmHg 46%
    16:00 +28°C° 1.2 mm 2 mps 722 mmHg 50%
    17:00 +28°C° 1.2 mm 1 mps 722 mmHg 53%
    18:00 +27°C° 1.2 mm 1 mps 723 mmHg 57%
    19:00 +25°C° 1 mm 1 mps 723 mmHg 63%
    20:00 +24°C° 1 mm 2 mps 724 mmHg 69%
    21:00 +21°C° 1 mm 2 mps 724 mmHg 74%
    22:00 +21°C° 0.3 mm 2 mps 725 mmHg 75%
    23:00 +21°C° 0.3 mm 2 mps 725 mmHg 75%

    27 May, Monday

    Time Temperature Precipitation Wind Pressure Humidity
    00:00 +20°C° 0.3 mm 3 mps 725 mmHg 75%
    01:00 +20°C° 0 mm 3 mps 725 mmHg 75%
    02:00 +20°C° 0 mm 3 mps 725 mmHg 74%
    03:00 +20°C° 0 mm 3 mps 725 mmHg 74%
    04:00 +20°C° 0 mm 3 mps 726 mmHg 73%
    05:00 +21°C° 0 mm 3 mps 726 mmHg 72%
    06:00 +21°C° 0 mm 3 mps 726 mmHg 71%
    07:00 +22°C° 0 mm 4 mps 726 mmHg 65%
    08:00 +25°C° 0 mm 4 mps 726 mmHg 59%
    09:00 +26°C° 0 mm 5 mps 726 mmHg 54%
    10:00 +27°C° 0 mm 4 mps 726 mmHg 50%
    11:00 +28°C° 0 mm 4 mps 726 mmHg 46%
    12:00 +29°C° 0 mm 3 mps 726 mmHg 42%
    13:00 +29°C° 0 mm 3 mps 726 mmHg 40%
    14:00 +30°C° 0 mm 2 mps 726 mmHg 38%
    15:00 +30°C° 0 mm 1 mps 726 mmHg 37%
    16:00 +30°C° 0 mm 1 mps 726 mmHg 38%
    17:00 +29°C° 0 mm 2 mps 727 mmHg 40%
    18:00 +29°C° 0 mm 2 mps 727 mmHg 42%
    19:00 +28°C° 0 mm 2 mps 728 mmHg 44%
    20:00 +26°C° 0 mm 2 mps 728 mmHg 46%
    21:00 +25°C° 0 mm 2 mps 729 mmHg 48%
    22:00 +24°C° 0 mm 2 mps 729 mmHg 52%
    23:00 +23°C° 0 mm 2 mps 729 mmHg 56%

    28 May, Tuesday

    Time Temperature Precipitation Wind Pressure Humidity
    00:00 +21°C° 0 mm 2 mps 729 mmHg 60%
    01:00 +22°C° 0 mm 1 mps 729 mmHg 61%
    02:00 +21°C° 0 mm 1 mps 729 mmHg 63%
    03:00 +21°C° 0 mm 1 mps 730 mmHg 65%
    04:00 +21°C° 0 mm 1 mps 730 mmHg 63%
    05:00 +22°C° 0 mm 1 mps 730 mmHg 61%
    06:00 +22°C° 0 mm 1 mps 730 mmHg 59%
    07:00 +23°C° 0 mm 1 mps 730 mmHg 57%
    08:00 +24°C° 0 mm 2 mps 730 mmHg 54%
    09:00 +26°C° 0 mm 2 mps 730 mmHg 52%
    10:00 +27°C° 0 mm 2 mps 730 mmHg 50%
    11:00 +27°C° 0 mm 3 mps 730 mmHg 48%
    12:00 +28°C° 0 mm 3 mps 729 mmHg 46%
    13:00 +29°C° 0 mm 3 mps 729 mmHg 45%
    14:00 +30°C° 0 mm 3 mps 729 mmHg 44%
    15:00 +30°C° 0 mm 4 mps 728 mmHg 43%
    16:00 +30°C° 0 mm 3 mps 729 mmHg 45%
    17:00 +29°C° 0 mm 3 mps 729 mmHg 47%
    18:00 +29°C° 0 mm 3 mps 729 mmHg 49%
    19:00 +28°C° 0 mm 3 mps 729 mmHg 52%
    20:00 +26°C° 0 mm 3 mps 729 mmHg 55%
    21:00 +25°C° 0 mm 2 mps 730 mmHg 58%
    22:00 +24°C° 0 mm 2 mps 730 mmHg 59%
    23:00 +23°C° 0 mm 2 mps 730 mmHg 61%
    Show more